• En España
  • Lista de países
  • Para 7 días
  • Temperatura del agua
  • Mapa Satelital
  • El tiempo en el mapa
  • Informadores
  • user-avatar
    Iniciar sesión

    Tiempo cada hora Sopki

    Hoy, 14 Noviembre, Miércoles

    Tiempo Temperatura Precipitaciones Viento Presión Humedad
    00:00 -2°C° 0.7 mm 5 mps 748 mmHg 83%
    01:00 -2°C° 0.7 mm 5 mps 748 mmHg 83%
    02:00 -2°C° 0 mm 4 mps 747 mmHg 80%
    03:00 -3°C° 0.8 mm 4 mps 747 mmHg 84%
    04:00 -3°C° 0.8 mm 4 mps 747 mmHg 88%
    05:00 -3°C° 0.8 mm 4 mps 747 mmHg 92%
    06:00 -3°C° 0.6 mm 4 mps 747 mmHg 91%
    07:00 -3°C° 0.6 mm 4 mps 747 mmHg 91%
    08:00 -2°C° 0 mm 3 mps 747 mmHg 91%
    09:00 -2°C° 0.7 mm 3 mps 747 mmHg 91%
    10:00 -2°C° 0.7 mm 3 mps 747 mmHg 91%
    11:00 -2°C° 0.7 mm 3 mps 748 mmHg 92%
    12:00 -2°C° 0.6 mm 3 mps 748 mmHg 92%
    13:00 -2°C° 0.6 mm 3 mps 748 mmHg 92%
    14:00 -4°C° 0 mm 3 mps 748 mmHg 92%
    15:00 -3°C° 0.5 mm 2 mps 748 mmHg 93%
    16:00 -3°C° 0.5 mm 2 mps 749 mmHg 93%
    17:00 -3°C° 0.5 mm 2 mps 749 mmHg 93%
    18:00 -3°C° 0.4 mm 2 mps 749 mmHg 93%
    19:00 -3°C° 0.4 mm 2 mps 750 mmHg 93%
    20:00 -3°C° 0.4 mm 2 mps 750 mmHg 93%
    21:00 -1°C° 0.3 mm 1 mps 750 mmHg 93%
    22:00 -1°C° 0.3 mm 1 mps 751 mmHg 93%
    23:00 -1°C° 0.3 mm 1 mps 751 mmHg 93%

    Mañana, 15 Noviembre, Jueves

    Tiempo Temperatura Precipitaciones Viento Presión Humedad
    00:00 -1°C° 0.2 mm 1 mps 752 mmHg 94%
    01:00 -1°C° 0.2 mm 1 mps 752 mmHg 94%
    02:00 -1°C° 0.2 mm 1 mps 753 mmHg 94%
    03:00 -2°C° 0.1 mm 1 mps 753 mmHg 94%
    04:00 -2°C° 0.1 mm 1 mps 753 mmHg 94%
    05:00 -2°C° 0.1 mm 1 mps 754 mmHg 95%
    06:00 -2°C° 0 mm 1 mps 754 mmHg 95%
    07:00 -2°C° 0 mm 1 mps 755 mmHg 95%
    08:00 -2°C° 0 mm 1 mps 755 mmHg 95%
    09:00 -2°C° 0 mm 1 mps 756 mmHg 92%
    10:00 -1°C° 0 mm 1 mps 756 mmHg 90%
    11:00 0°C° 0 mm 1 mps 757 mmHg 88%
    12:00 0°C° 0 mm 1 mps 757 mmHg 89%
    13:00 0°C° 0 mm 1 mps 758 mmHg 90%
    14:00 -1°C° 0 mm 0 mps 758 mmHg 91%
    15:00 -1°C° 0 mm 1 mps 758 mmHg 92%
    16:00 -1°C° 0 mm 1 mps 759 mmHg 92%
    17:00 -2°C° 0 mm 1 mps 759 mmHg 93%
    18:00 -2°C° 0 mm 1 mps 760 mmHg 93%
    19:00 -2°C° 0 mm 1 mps 760 mmHg 94%
    20:00 -2°C° 0 mm 1 mps 760 mmHg 94%
    21:00 -3°C° 0 mm 1 mps 760 mmHg 94%
    22:00 -3°C° 0 mm 1 mps 761 mmHg 94%
    23:00 -3°C° 0 mm 1 mps 761 mmHg 94%

    Pasado mañana, 16 Noviembre, Viernes

    Tiempo Temperatura Precipitaciones Viento Presión Humedad
    00:00 -3°C° 0 mm 1 mps 761 mmHg 94%
    01:00 -3°C° 0 mm 1 mps 762 mmHg 95%
    02:00 -3°C° 0 mm 1 mps 762 mmHg 95%
    03:00 -3°C° 0 mm 1 mps 762 mmHg 95%
    04:00 -3°C° 0 mm 1 mps 762 mmHg 95%
    05:00 -3°C° 0 mm 1 mps 762 mmHg 95%
    06:00 -3°C° 0 mm 1 mps 763 mmHg 95%
    07:00 -3°C° 0 mm 1 mps 763 mmHg 96%
    08:00 -3°C° 0 mm 1 mps 763 mmHg 96%
    09:00 -4°C° 0 mm 2 mps 763 mmHg 94%
    10:00 -3°C° 0 mm 2 mps 763 mmHg 93%
    11:00 -2°C° 0 mm 2 mps 764 mmHg 91%
    12:00 -1°C° 0 mm 2 mps 764 mmHg 92%
    13:00 -1°C° 0 mm 2 mps 764 mmHg 92%
    14:00 -1°C° 0 mm 2 mps 764 mmHg 92%
    15:00 -2°C° 0 mm 2 mps 763 mmHg 93%
    16:00 -2°C° 0 mm 2 mps 763 mmHg 94%
    17:00 -3°C° 0 mm 2 mps 763 mmHg 96%
    18:00 -3°C° 0 mm 2 mps 763 mmHg 95%
    19:00 -3°C° 0 mm 2 mps 763 mmHg 95%
    20:00 -3°C° 0 mm 2 mps 763 mmHg 95%
    21:00 -3°C° 0 mm 2 mps 763 mmHg 95%
    22:00 -4°C° 0 mm 3 mps 763 mmHg 95%
    23:00 -4°C° 0 mm 3 mps 763 mmHg 95%

    17 Noviembre, Sábado

    Tiempo Temperatura Precipitaciones Viento Presión Humedad
    00:00 -4°C° 0 mm 3 mps 762 mmHg 95%
    01:00 -4°C° 0 mm 3 mps 762 mmHg 95%
    02:00 -4°C° 0 mm 3 mps 762 mmHg 95%
    03:00 -4°C° 0 mm 3 mps 762 mmHg 95%
    04:00 -4°C° 0 mm 3 mps 761 mmHg 95%
    05:00 -4°C° 0 mm 3 mps 761 mmHg 94%
    06:00 -2°C° 0.1 mm 3 mps 760 mmHg 94%
    07:00 -3°C° 0.1 mm 4 mps 760 mmHg 93%
    08:00 -2°C° 0.1 mm 4 mps 759 mmHg 92%
    09:00 -2°C° 0.1 mm 4 mps 758 mmHg 92%
    10:00 -2°C° 0.1 mm 4 mps 758 mmHg 92%
    11:00 -1°C° 0.1 mm 4 mps 757 mmHg 92%
    12:00 -1°C° 0.1 mm 4 mps 757 mmHg 93%
    13:00 -1°C° 0.1 mm 4 mps 756 mmHg 93%
    14:00 0°C° 0.1 mm 4 mps 755 mmHg 93%
    15:00 0°C° 0.1 mm 4 mps 755 mmHg 94%
    16:00 0°C° 0.1 mm 4 mps 754 mmHg 95%
    17:00 0°C° 0.1 mm 4 mps 753 mmHg 95%
    18:00 0°C° 0.1 mm 4 mps 753 mmHg 96%
    19:00 0°C° 0.1 mm 4 mps 752 mmHg 96%
    20:00 +1°C° 0.1 mm 3 mps 752 mmHg 96%
    21:00 +1°C° 0.1 mm 3 mps 751 mmHg 96%
    22:00 +1°C° 0.1 mm 3 mps 750 mmHg 97%
    23:00 +1°C° 0.1 mm 3 mps 750 mmHg 97%

    18 Noviembre, Domingo

    Tiempo Temperatura Precipitaciones Viento Presión Humedad
    00:00 +1°C° 0.2 mm 3 mps 749 mmHg 96%
    01:00 0°C° 0.2 mm 4 mps 749 mmHg 96%
    02:00 0°C° 0.2 mm 4 mps 749 mmHg 96%
    03:00 0°C° 0.1 mm 4 mps 748 mmHg 95%
    04:00 +1°C° 0.1 mm 3 mps 748 mmHg 94%
    05:00 +1°C° 0.1 mm 3 mps 748 mmHg 93%
    06:00 0°C° 0.3 mm 4 mps 747 mmHg 91%
    07:00 0°C° 0.3 mm 4 mps 747 mmHg 89%
    08:00 0°C° 0.3 mm 4 mps 747 mmHg 88%
    09:00 0°C° 0.2 mm 4 mps 747 mmHg 87%
    10:00 0°C° 0.2 mm 4 mps 747 mmHg 87%
    11:00 +1°C° 0.2 mm 5 mps 747 mmHg 87%
    12:00 +1°C° 0.3 mm 5 mps 747 mmHg 87%
    13:00 +1°C° 0.3 mm 5 mps 748 mmHg 88%
    14:00 +1°C° 0.3 mm 5 mps 748 mmHg 88%
    15:00 +1°C° 0.2 mm 5 mps 748 mmHg 88%
    16:00 +1°C° 0.2 mm 5 mps 749 mmHg 88%
    17:00 +1°C° 0.2 mm 6 mps 749 mmHg 88%
    18:00 +1°C° 0.2 mm 6 mps 750 mmHg 87%
    19:00 -1°C° 0.2 mm 6 mps 750 mmHg 87%
    20:00 -1°C° 0.2 mm 6 mps 751 mmHg 86%
    21:00 0°C° 0.1 mm 5 mps 751 mmHg 86%
    22:00 -1°C° 0.1 mm 5 mps 752 mmHg 85%
    23:00 -1°C° 0.1 mm 5 mps 752 mmHg 85%

    19 Noviembre, Lunes

    Tiempo Temperatura Precipitaciones Viento Presión Humedad
    00:00 -2°C° 0 mm 5 mps 752 mmHg 85%
    01:00 -2°C° 0 mm 5 mps 753 mmHg 85%
    02:00 -2°C° 0 mm 5 mps 753 mmHg 85%
    03:00 -4°C° 0 mm 5 mps 753 mmHg 85%
    04:00 -3°C° 0 mm 4 mps 753 mmHg 86%
    05:00 -3°C° 0 mm 4 mps 754 mmHg 86%
    06:00 -3°C° 0 mm 4 mps 754 mmHg 86%
    07:00 -2°C° 0 mm 4 mps 754 mmHg 87%
    08:00 -2°C° 0 mm 4 mps 755 mmHg 87%
    09:00 -2°C° 0 mm 4 mps 755 mmHg 87%
    10:00 -2°C° 0 mm 4 mps 756 mmHg 87%
    11:00 -1°C° 0 mm 4 mps 756 mmHg 87%
    12:00 -1°C° 0 mm 4 mps 756 mmHg 87%
    13:00 -1°C° 0 mm 4 mps 756 mmHg 88%
    14:00 0°C° 0 mm 3 mps 756 mmHg 88%
    15:00 -1°C° 0 mm 3 mps 756 mmHg 89%
    16:00 -1°C° 0 mm 3 mps 756 mmHg 90%
    17:00 -1°C° 0 mm 3 mps 757 mmHg 91%
    18:00 -1°C° 0 mm 3 mps 757 mmHg 91%
    19:00 -1°C° 0 mm 3 mps 757 mmHg 92%
    20:00 -1°C° 0 mm 3 mps 757 mmHg 92%
    21:00 -1°C° 0 mm 3 mps 757 mmHg 93%
    22:00 -1°C° 0 mm 2 mps 757 mmHg 93%
    23:00 -2°C° 0 mm 2 mps 757 mmHg 93%
    Mostrar más